Hourly Data Report for February 09, 2017

All times are specified in Local Standard Time (LST). Add 1 hour to adjust for Daylight Saving Time where and when it is observed.

TORONTO CITY
ONTARIO

43°40'00.000" N
79°24'00.000" W
112.50 m
6158355
71508
XTO

Download Data

Hourly Data (February 2017)
Hourly Data Report for February 9, 2017
TIME Temp Definition
°C
Dew Point Definition
°C
Rel Hum Definition
%
Wind Dir Definition
10's deg

Wind Spd Definition
km/h
Visibility Definition
km
Stn Press Definition
kPa
Hmdx Definition


Wind Chill Definition


Weather Definition


00:00 -6.5 -12.7 61 LegendMM LegendMM   99.85     LegendNANA
01:00 -7.0 -12.6 64 LegendMM LegendMM   99.84     LegendNANA
02:00 -7.6 -14.1 60 LegendMM LegendMM   99.85     LegendNANA
03:00 -8.5 -14.6 61 LegendMM LegendMM   99.90     LegendNANA
04:00 -9.7 -17.6 53 LegendMM LegendMM   99.97     LegendNANA
05:00 -10.2 -17.4 56 LegendMM LegendMM   100.04     LegendNANA
06:00 -10.8 -18.0 55 LegendMM LegendMM   100.09     LegendNANA
07:00 -10.9 -18.3 55 LegendMM LegendMM   100.11     LegendNANA
08:00 -10.7 -18.2 54 LegendMM LegendMM   100.15     LegendNANA
09:00 -10.4 -18.5 51 LegendMM LegendMM   100.15     LegendNANA
10:00 -8.7 -17.6 48 LegendMM LegendMM   100.17     LegendNANA
11:00 -7.7 -16.9 48 LegendMM LegendMM   100.20     LegendNANA
12:00 -6.8 -16.1 48 LegendMM LegendMM   100.20     LegendNANA
13:00 -5.0 -16.3 41 LegendMM LegendMM   100.16     LegendNANA
14:00 -4.8 -17.0 38 LegendMM LegendMM   100.16     LegendNANA
15:00 -5.0 -16.6 40 LegendMM LegendMM   100.16     LegendNANA
16:00 -4.4 -17.6 35 LegendMM LegendMM   100.21     LegendNANA
17:00 -4.7 -14.8 45 LegendMM LegendMM   100.27     LegendNANA
18:00 -5.2 -14.0 50 LegendMM LegendMM   100.33     LegendNANA
19:00 -5.8 -12.3 60 LegendMM LegendMM   100.35     LegendNANA
20:00 -6.2 -12.1 63 LegendMM LegendMM   100.41     LegendNANA
21:00 -6.3 -12.1 64 LegendMM LegendMM   100.45     LegendNANA
22:00 -6.4 -12.0 64 LegendMM LegendMM   100.44     LegendNANA
23:00 -6.3 -12.6 61 LegendMM LegendMM   100.49     LegendNANA

Notes on Data Quality.

Legend

  • E = Estimated
  • M = Missing
  • NA = Not Available
Date modified: